User: anonymous   Login
Location: Unspecified
(0.0000°N, 0.0000°E)
Time: 04:19:37
(UTC+02:00)
Language:

Cosmos 1933 - Orbit

View from above orbital plane
View from above orbital plane
View from above satellite
View from above satellite

Ground track
Ground track

The orbit data is extracted from the following two-line orbital elements,

1 18958U 88020A   15149.34575475  .00001168  00000-0  86635-4 0  9997
2 18958 082.5297 106.9019 0010743 318.7139 041.3273 15.02148112478913
Epoch (UTC): 29 May 2015 08:17:53
Eccentricity: 0.0010743
inclination: 82.5297°
perigee height: 553 km
apogee height: 568 km
right ascension of ascending node: 106.9019°
argument of perigee: 318.7139°
revolutions per day: 15.02148112
mean anomaly at epoch: 41.3273°
orbit number at epoch: 47891

The dashed part of the orbit path shows where the satellite is in the earth's shadow,  

DLR